カタログに戻る

STARLINK-31961

運用中通信VLEO
NORAD 59894·PAYLOAD·🇺🇸 United States

打ち上げ May 28, 2024 から Cape Canaveral Space Force Station

Loading…

次のパス (今後24時間)

TLE

最新Source: CelesTrak SupGP

元期: Sep 14, 2026, 20:46 UTC

1 59894C 24100K   26257.86576389 -.00050013  00000+0 -18115-2 0  2571
2 59894  43.0011 130.0410 0001070 265.7234 313.9244 15.27602837    10

AllMySatでSTARLINK-31961をリアルタイム追跡

Download on the App Store